TimeEST,TemperatureF,Dew PointF,Humidity,Sea Level PressureIn,VisibilityMPH,Wind Direction,Wind SpeedMPH,Gust SpeedMPH,PrecipitationIn,Events,Conditions,WindDirDegrees,DateUTC
12:54 AM,45.0,41.0,86,29.92,10.0,WSW,4.6,-,N/A,,Overcast,240,2012-12-25 05:54:00
1:07 AM,44.6,42.8,93,29.91,10.0,WSW,5.8,-,N/A,,Overcast,240,2012-12-25 06:07:00
1:54 AM,44.1,42.1,93,29.95,10.0,West,8.1,-,N/A,,Overcast,260,2012-12-25 06:54:00
2:54 AM,44.1,42.1,93,29.97,10.0,WNW,6.9,-,N/A,,Overcast,290,2012-12-25 07:54:00
3:54 AM,44.1,42.1,93,29.97,10.0,West,6.9,-,N/A,,Overcast,270,2012-12-25 08:54:00
4:54 AM,43.0,41.0,93,30.00,6.0,NW,5.8,-,N/A,,Overcast,320,2012-12-25 09:54:00
5:54 AM,42.1,39.9,92,30.03,6.0,Calm,Calm,-,N/A,,Overcast,0,2012-12-25 10:54:00
6:54 AM,42.1,41.0,96,30.07,5.0,Calm,Calm,-,N/A,,Overcast,0,2012-12-25 11:54:00
7:36 AM,42.8,39.2,87,30.07,2.5,Calm,Calm,-,N/A,,Overcast,0,2012-12-25 12:36:00
7:54 AM,42.1,39.9,92,30.09,2.5,Calm,Calm,-,N/A,,Overcast,0,2012-12-25 12:54:00
8:41 AM,41.0,39.2,93,30.09,1.0,NNE,3.5,-,N/A,,Overcast,30,2012-12-25 13:41:00
8:54 AM,42.1,39.9,92,30.11,1.0,Calm,Calm,-,N/A,,Overcast,0,2012-12-25 13:54:00
9:47 AM,42.8,39.2,87,30.11,2.0,Calm,Calm,-,N/A,,Overcast,0,2012-12-25 14:47:00
9:54 AM,42.1,39.9,92,30.14,2.0,Calm,Calm,-,N/A,,Overcast,0,2012-12-25 14:54:00
10:31 AM,44.6,39.2,81,30.12,2.5,Calm,Calm,-,N/A,,Overcast,0,2012-12-25 15:31:00
10:54 AM,44.1,39.9,85,30.15,6.0,Calm,Calm,-,N/A,,Mostly Cloudy,0,2012-12-25 15:54:00
11:17 AM,46.4,41.0,81,30.13,10.0,Calm,Calm,-,N/A,,Mostly Cloudy,0,2012-12-25 16:17:00
11:54 AM,48.0,39.0,71,30.12,10.0,NNE,6.9,-,N/A,,Mostly Cloudy,20,2012-12-25 16:54:00
12:20 PM,48.2,39.2,71,30.11,10.0,NE,6.9,-,N/A,,Mostly Cloudy,40,2012-12-25 17:20:00
12:54 PM,50.0,39.0,66,30.13,10.0,North,5.8,-,N/A,,Scattered Clouds,10,2012-12-25 17:54:00
1:54 PM,50.0,37.9,63,30.11,10.0,NNE,9.2,-,N/A,,Scattered Clouds,30,2012-12-25 18:54:00
2:54 PM,50.0,37.0,61,30.14,10.0,Calm,Calm,-,N/A,,Mostly Cloudy,0,2012-12-25 19:54:00
3:54 PM,48.9,37.0,64,30.13,10.0,NE,6.9,-,N/A,,Overcast,40,2012-12-25 20:54:00
4:54 PM,46.0,35.1,66,30.16,10.0,NNE,4.6,-,N/A,,Overcast,30,2012-12-25 21:54:00
5:54 PM,44.1,36.0,73,30.17,10.0,NE,3.5,-,N/A,,Overcast,50,2012-12-25 22:54:00
6:54 PM,43.0,36.0,76,30.17,10.0,NE,4.6,-,N/A,,Overcast,50,2012-12-25 23:54:00
7:54 PM,42.1,36.0,79,30.20,10.0,NNE,4.6,-,N/A,,Overcast,20,2012-12-26 00:54:00
8:54 PM,41.0,36.0,82,30.22,10.0,NE,3.5,-,N/A,,Overcast,40,2012-12-26 01:54:00
9:54 PM,43.0,37.0,80,30.20,10.0,East,6.9,-,N/A,,Overcast,80,2012-12-26 02:54:00
10:54 PM,43.0,37.0,80,30.22,10.0,East,9.2,-,N/A,,Overcast,80,2012-12-26 03:54:00
11:54 PM,42.1,36.0,79,30.23,10.0,ENE,8.1,-,N/A,,Overcast,70,2012-12-26 04:54:00